Wind_Speed
5 4 8 10 10 11 13 14 15 15 16 18 19 19 20 22 23 25 27 27 28 29 30 31 32 32 30 29 32 35 35 35 35 36 37 39 40 42 42 41 40 39 39
8 8 8 6 8 10 12 11 14 16 17 18 20 22 25 25 25 25 27 29 30 31 30 29 30 31 30 29 29 31 35 38 39 38 39 39 40 42 44 45 45 45 44
6 6 7 7 7 9 12 14 16 17 16 17 18 20 21 23 24 24 25 26 26 26 27 27 26 29 31 33 31 31 33 34 37 40 43 42 41 43 45 47 48 49 48
3 5 3 8 10 12 10 11 11 12 14 16 18 19 22 24 27 28 28 26 26 23 23 26 29 26 27 29 31 31 31 33 34 36 40 43 46 47 46 45 48 52 53
2 4 4 4 2 4 6 10 13 16 19 21 22 23 24 26 28 26 24 24 22 21 20 20 20 24 29 31 35 33 32 33 34 34 35 38 41 45 48 51 51 51 53
4 2 2 4 7 9 12 15 18 19 21 22 25 26 27 26 14 15 20 19 23 28 27 29 32 33 29 27 26 24 26 29 34 36 39 38 37 40 41 44 49 54 56
6 6 8 10 11 13 15 18 21 23 23 22 26 29 28 12 17 22 17 28 31 31 32 29 25 26 29 31 34 35 38 37 36 33 34 39 40 41 42 41 39 41 47
8 9 12 14 16 17 19 19 20 21 20 20 20 24 16 27 6 30 24 32 15 17 23 31 32 32 34 37 39 42 43 45 42 35 34 36 33 33 36 37 38 38 40
10 13 16 18 20 20 20 19 19 19 21 20 19 15 12 9 39 16 33 15 19 34 25 31 36 37 37 31 30 33 36 35 35 33 33 33 33 36 34 33 31 35 36
12 16 20 22 22 21 19 18 18 18 19 21 22 21 19 23 26 26 15 34 25 36 37 34 36 29 28 34 39 33 29 29 31 31 33 34 36 36 34 33 36 35 36
17 19 23 23 23 21 19 18 19 19 21 21 22 24 28 27 29 30 38 29 39 32 33 34 30 35 35 36 32 33 36 34 36 33 34 36 36 37 39 38 35 34 35
17 20 22 22 22 20 20 20 21 21 23 24 24 26 26 26 33 32 36 41 40 38 33 31 33 29 32 34 32 33 38 44 47 45 40 41 42 42 43 40 41 43 43
18 21 23 21 20 19 19 21 23 25 26 26 26 29 26 29 32 30 35 40 39 41 37 34 33 31 30 29 38 40 41 43 44 43 45 44 42 41 42 43 45 46 42
20 22 21 19 18 19 21 23 25 26 27 27 28 27 29 30 28 30 33 35 45 43 41 39 34 36 36 28 38 35 37 30 39 41 41 38 41 43 43 45 45 41 41
20 19 18 18 19 21 23 25 27 29 28 29 27 28 31 31 32 31 32 33 34 43 46 45 41 39 36 38 37 33 41 39 38 40 40 41 39 40 40 42 42 42 42
18 17 17 19 21 23 26 28 30 30 30 27 28 33 32 32 33 34 32 32 33 35 46 48 44 44 46 40 40 38 39 40 41 36 37 39 41 41 43 44 43 42 44
16 16 19 21 24 26 29 31 31 31 30 28 34 34 33 34 34 33 35 34 35 33 36 48 49 47 46 50 52 40 39 40 40 34 37 42 43 41 41 42 44 44 42
16 18 21 24 26 29 30 31 31 31 27 33 39 36 35 34 36 34 33 36 34 36 39 41 47 45 47 50 45 49 40 41 31 39 39 46 40 38 42 41 41 43 45
17 20 23 26 29 30 31 30 30 28 33 40 38 37 36 34 34 34 35 37 40 38 36 36 46 49 45 45 49 47 42 36 36 39 47 38 38 38 39 39 40 40 41
20 23 26 28 30 30 30 32 28 35 38 39 39 36 31 30 33 36 38 38 34 34 36 41 43 43 43 50 43 35 43 43 48 44 42 42 36 39 39 38 36 38 39
22 26 29 30 29 30 31 27 31 32 37 40 39 30 31 32 32 33 34 36 38 42 43 38 40 43 44 44 39 41 46 49 49 43 43 39 41 42 43 38 37 34 32
26 28 29 29 29 30 33 29 27 32 35 37 35 34 34 34 33 33 35 38 37 39 41 44 41 44 48 46 45 43 43 48 51 37 35 56 42 45 44 39 35 31 33
28 28 29 30 31 33 31 27 28 31 33 37 33 36 36 35 37 41 39 39 40 37 37 42 44 44 47 46 46 48 46 44 44 45 44 48 40 42 39 43 40 39 34
28 29 31 32 33 33 28 28 28 30 35 34 36 35 35 39 41 38 41 43 45 45 41 40 40 42 42 45 44 43 44 50 49 42 34 42 41 41 46 44 37 38 38
29 31 32 33 32 31 31 27 27 31 37 37 35 33 35 40 38 38 41 46 45 42 46 38 37 38 40 39 37 40 42 41 44 39 36 43 39 43 46 44 39 27 28
30 32 32 31 31 33 29 26 27 32 34 36 37 41 39 37 39 39 40 44 40 45 43 42 44 46 40 41 35 34 39 41 42 44 38 38 41 40 40 33 15 25 34
Wind_Direction
259 252 268 288 296 302 312 319 315 316 307 302 300 297 297 295 296 296 297 299 299 298 296 295 298 299 296 284 277 276 278 275 272 272 269 263 259 260 262 262 260 257 256
242 255 281 309 305 314 311 308 306 297 294 296 298 299 294 289 287 284 285 285 284 286 288 292 293 294 296 293 285 278 274 274 276 276 270 266 263 259 259 260 261 261 258
298 299 314 330 304 278 283 297 300 306 307 311 303 302 299 301 302 299 298 299 303 296 296 293 292 292 293 294 289 286 281 275 271 271 272 273 271 266 260 257 258 260 259
231 274 283 274 297 302 309 301 305 306 307 307 310 310 312 313 311 306 307 305 304 305 305 298 301 294 300 303 301 299 296 290 285 277 270 268 268 269 269 267 262 257 257
135 163 250 303 293 314 308 314 322 322 318 317 311 304 299 298 308 305 309 306 296 292 291 290 294 300 300 302 296 289 289 286 287 289 286 278 273 268 267 267 266 264 260
134 117 58 8 1 347 331 328 325 322 322 319 313 314 313 321 313 320 305 296 290 290 288 293 290 299 292 289 293 294 299 297 294 293 287 284 282 277 275 270 266 264 263
67 41 16 359 349 341 333 328 326 325 327 328 328 325 333 331 306 289 302 303 305 303 296 299 300 291 291 290 289 289 290 287 288 286 292 291 289 288 284 281 278 270 265
28 10 358 348 341 336 332 333 333 334 336 343 341 334 331 333 299 309 322 323 314 305 302 299 295 296 294 291 287 287 286 287 291 294 290 285 283 288 284 283 282 280 277
9 359 351 344 340 337 336 338 335 339 338 341 340 342 334 307 316 325 312 326 299 304 310 299 296 303 304 305 301 298 295 290 290 297 296 293 288 284 288 291 291 286 284
359 353 350 347 342 340 337 338 338 338 336 334 330 328 317 311 315 316 322 303 316 305 310 309 307 312 300 293 301 304 306 294 296 295 290 288 288 288 289 287 289 289 289
351 352 345 342 338 336 335 334 333 335 333 327 325 321 320 317 315 306 306 306 305 308 306 307 308 297 302 302 297 294 295 286 286 300 297 291 289 287 285 288 290 290 295
341 340 338 336 333 333 335 334 331 329 326 325 321 320 320 312 313 308 303 304 305 307 304 300 300 292 303 299 297 291 288 285 284 291 296 294 292 289 282 286 285 287 290
335 334 333 333 332 332 330 328 326 326 326 322 319 316 312 304 308 301 302 302 303 305 302 302 300 304 308 291 290 294 289 287 291 295 296 294 292 289 286 284 285 287 286
333 330 329 330 331 330 327 326 324 324 323 319 313 314 307 307 307 299 303 303 307 304 304 303 306 306 307 299 307 292 300 296 298 297 297 293 290 288 288 287 287 285 285
331 329 331 331 330 328 328 326 325 323 320 317 315 308 310 305 306 303 299 301 301 303 304 305 306 310 304 309 305 299 300 303 297 297 294 296 294 292 289 288 286 286 285
332 331 331 331 331 330 327 323 321 319 318 316 308 312 310 308 305 303 303 300 297 298 298 302 306 305 307 305 302 303 301 297 300 296 296 298 295 293 291 287 286 285 285
332 332 333 332 330 327 323 320 320 319 318 311 312 313 308 306 307 302 303 302 300 300 296 297 301 305 303 308 309 307 301 301 296 293 298 301 297 290 287 286 286 285 283
332 331 330 329 327 324 322 321 322 320 314 306 313 313 310 307 305 307 304 303 301 297 296 295 299 302 304 309 306 305 302 300 288 296 302 300 292 288 291 288 287 286 283
331 331 329 327 326 324 324 322 321 312 304 307 315 315 311 311 309 308 306 303 302 299 294 294 297 302 303 303 304 300 301 298 299 298 305 296 295 294 292 288 286 284 284
332 331 330 328 326 326 323 322 313 307 312 313 316 317 316 314 310 308 307 306 305 303 302 299 296 299 304 303 307 305 307 303 304 306 300 298 297 293 292 289 288 284 281
333 332 329 328 327 323 319 315 311 312 310 311 318 321 320 312 307 306 306 308 308 307 301 304 307 302 306 315 308 308 302 305 303 304 301 299 302 299 299 297 294 289 287
333 330 328 326 322 318 315 314 313 311 309 315 323 320 316 313 313 309 306 305 303 305 307 306 311 309 308 306 305 300 301 303 302 307 303 300 301 299 301 300 300 291 289
330 328 327 326 322 321 322 316 314 311 311 318 317 317 315 315 314 315 313 308 307 310 306 307 304 303 302 304 310 303 300 299 297 300 303 296 300 295 297 298 297 293 283
330 328 328 328 325 325 322 317 315 311 315 316 317 316 314 314 318 316 311 311 308 314 312 308 304 302 304 305 304 303 301 298 299 300 300 291 300 293 299 301 296 293 287
330 331 328 327 327 326 322 320 318 316 315 316 316 314 315 317 317 315 312 315 318 310 317 310 308 305 304 303 302 303 302 302 299 300 300 297 298 294 300 303 307 301 286
329 328 327 328 327 323 328 322 320 318 318 318 318 319 322 319 317 314 318 317 316 318 316 317 311 311 315 318 312 306 303 298 298 299 300 295 296 300 299 303 298 295 299
Height
1497 1497 1497 1497 1496 1495 1494 1493 1493 1492 1491 1490 1488 1487 1485 1484 1482 1480 1478 1477 1474 1473 1471 1470 1467 1465 1463 1461 1460 1459 1458 1457 1457 1457 1457 1458 1458 1459 1459 1459 1460 1461 1462
1495 1495 1495 1495 1495 1494 1493 1492 1490 1489 1487 1485 1484 1483 1481 1480 1478 1476 1474 1472 1470 1468 1466 1464 1462 1460 1458 1456 1454 1452 1451 1450 1449 1448 1448 1448 1449 1450 1450 1451 1451 1452 1453
1493 1493 1493 1494 1493 1491 1490 1489 1488 1486 1484 1482 1480 1478 1477 1475 1472 1470 1468 1467 1464 1462 1461 1459 1458 1455 1453 1451 1449 1446 1444 1442 1441 1440 1439 1439 1438 1439 1440 1440 1441 1442 1443
1490 1490 1490 1490 1490 1489 1488 1486 1484 1483 1481 1479 1476 1474 1472 1469 1467 1465 1463 1460 1459 1457 1456 1454 1451 1449 1447 1444 1442 1440 1437 1435 1433 1432 1430 1430 1429 1428 1429 1429 1430 1431 1432
1488 1487 1487 1488 1487 1486 1485 1484 1482 1479 1477 1474 1471 1469 1467 1465 1462 1459 1457 1455 1452 1451 1449 1447 1445 1443 1441 1439 1436 1433 1430 1428 1425 1424 1422 1421 1419 1419 1418 1418 1418 1418 1419
1487 1486 1486 1486 1485 1484 1482 1480 1478 1476 1473 1470 1466 1463 1460 1458 1455 1454 1451 1449 1448 1446 1443 1440 1438 1435 1433 1432 1429 1426 1424 1421 1418 1415 1413 1412 1410 1408 1407 1406 1406 1406 1407
1486 1486 1485 1485 1484 1481 1479 1477 1474 1471 1469 1466 1460 1456 1454 1453 1452 1448 1447 1445 1443 1440 1438 1435 1432 1430 1427 1425 1422 1419 1416 1414 1410 1407 1405 1402 1401 1399 1397 1396 1394 1394 1394
1486 1485 1484 1483 1481 1479 1476 1474 1471 1468 1466 1464 1459 1454 1448 1445 1446 1446 1441 1440 1436 1434 1433 1430 1427 1424 1421 1417 1414 1411 1408 1405 1401 1398 1395 1393 1391 1389 1387 1386 1384 1383 1381
1485 1484 1483 1481 1478 1476 1473 1470 1468 1466 1462 1461 1460 1459 1452 1446 1440 1436 1435 1434 1432 1429 1426 1424 1421 1417 1413 1409 1406 1403 1400 1397 1393 1390 1386 1384 1382 1380 1379 1376 1374 1373 1371
1485 1483 1480 1477 1475 1472 1470 1468 1466 1464 1461 1458 1457 1457 1455 1451 1444 1428 1428 1427 1424 1421 1417 1415 1412 1409 1406 1403 1399 1396 1393 1388 1384 1381 1378 1376 1374 1371 1368 1367 1365 1363 1361
1481 1479 1477 1475 1472 1470 1467 1465 1463 1461 1459 1457 1454 1451 1448 1445 1442 1436 1418 1417 1416 1414 1411 1408 1405 1402 1397 1395 1390 1388 1383 1378 1374 1371 1370 1368 1365 1363 1360 1358 1355 1353 1349
1479 1477 1475 1472 1469 1467 1464 1462 1460 1458 1456 1453 1450 1448 1445 1441 1436 1432 1422 1412 1406 1404 1403 1401 1398 1395 1392 1388 1383 1378 1373 1369 1366 1361 1359 1357 1355 1352 1351 1347 1345 1343 1340
1477 1475 1472 1469 1467 1465 1462 1460 1458 1455 1452 1449 1446 1443 1440 1437 1433 1429 1422 1409 1401 1396 1393 1392 1389 1386 1383 1380 1375 1372 1365 1362 1357 1352 1348 1344 1342 1341 1338 1336 1334 1332 1329
1474 1472 1469 1467 1465 1463 1460 1457 1455 1452 1448 1445 1442 1438 1435 1431 1428 1424 1418 1411 1394 1388 1385 1381 1381 1377 1374 1371 1368 1363 1358 1353 1349 1345 1340 1337 1333 1330 1327 1325 1323 1320 1317
1471 1469 1466 1464 1463 1460 1457 1454 1450 1447 1444 1440 1436 1433 1429 1425 1421 1417 1413 1409 1403 1384 1371 1371 1370 1369 1365 1362 1360 1356 1350 1344 1340 1335 1331 1327 1324 1320 1317 1313 1311 1308 1306
1468 1466 1464 1462 1459 1457 1453 1449 1446 1442 1438 1434 1431 1427 1422 1418 1414 1410 1406 1402 1398 1391 1373 1368 1363 1359 1356 1352 1349 1346 1341 1335 1329 1325 1322 1318 1313 1309 1305 1302 1298 1296 1293
1466 1463 1461 1459 1456 1453 1449 1445 1441 1436 1432 1429 1425 1420 1415 1411 1406 1402 1398 1394 1389 1386 1376 1359 1357 1352 1345 1340 1335 1333 1330 1324 1318 1314 1312 1307 1302 1297 1293 1289 1286 1283 1281
1463 1460 1458 1455 1452 1449 1444 1440 1435 1432 1427 1422 1418 1413 1408 1404 1399 1395 1391 1386 1382 1377 1371 1359 1350 1345 1340 1333 1326 1320 1317 1313 1308 1305 1302 1296 1290 1285 1282 1278 1274 1270 1267
1460 1458 1455 1452 1448 1444 1439 1435 1431 1427 1422 1418 1412 1407 1401 1397 1392 1388 1384 1379 1373 1367 1361 1354 1343 1337 1330 1325 1317 1310 1305 1301 1298 1295 1289 1282 1278 1274 1270 1265 1261 1258 1254
1457 1455 1451 1448 1444 1439 1435 1431 1427 1422 1416 1411 1406 1401 1396 1392 1388 1383 1377 1371 1366 1360 1353 1345 1336 1328 1324 1315 1310 1301 1294 1291 1283 1281 1275 1271 1267 1261 1256 1253 1249 1245 1242
1454 1451 1447 1443 1440 1435 1431 1427 1422 1416 1410 1404 1400 1395 1391 1387 1383 1378 1372 1365 1359 1353 1344 1335 1329 1321 1314 1308 1302 1295 1286 1278 1270 1270 1261 1255 1254 1247 1242 1239 1236 1232 1230
1451 1447 1443 1439 1435 1431 1427 1422 1418 1411 1405 1399 1393 1389 1385 1381 1376 1371 1365 1360 1354 1346 1338 1331 1321 1315 1306 1302 1293 1285 1277 1269 1254 1259 1253 1240 1243 1233 1230 1227 1224 1222 1219
1446 1442 1438 1434 1430 1426 1421 1417 1412 1406 1400 1395 1390 1384 1378 1374 1369 1362 1354 1349 1342 1338 1334 1327 1315 1308 1298 1293 1285 1275 1268 1260 1251 1247 1246 1230 1231 1223 1220 1216 1214 1210 1208
1442 1437 1433 1429 1424 1420 1415 1411 1406 1401 1395 1390 1385 1380 1374 1367 1361 1355 1346 1338 1333 1327 1321 1315 1309 1299 1292 1285 1278 1270 1261 1249 1243 1239 1238 1223 1220 1212 1209 1204 1202 1198 1194
1437 1433 1429 1424 1419 1414 1411 1406 1402 1395 1389 1383 1379 1374 1369 1361 1355 1348 1339 1330 1322 1316 1310 1305 1298 1291 1284 1277 1270 1261 1252 1244 1231 1229 1228 1218 1210 1202 1199 1191 1188 1185 1183
1432 1428 1424 1419 1415 1409 1405 1402 1398 1392 1384 1378 1372 1366 1361 1356 1348 1341 1332 1324 1314 1307 1300 1292 1286 1279 1273 1265 1261 1255 1246 1237 1228 1217 1217 1211 1202 1198 1185 1183 1179 1178 1175